QB50P2

Last updated on Tue Jul 01 2025 00:03:44 GMT+0000 (Coordinated Universal Time)

1 40032U 14033Y 25181.47195294 .00004881 00000+0 31671-3 0 9999 2 40032 98.0443 153.9308 0007007 294.9506 65.0992 15.08565019599528
UTC large
Height (km)
Speed (km/s)
/
Latitude / Longitude
Inclination (degrees)
Orbital Period (minutes)
Azimuth
Elevation
Range (km)
Doppler Factor

Next 0 passes for location: London (51.5072 / 0.1276)

Sorry there are no passes over London.